This is the latest recevied weather packets stored in our database for station/object W1SCW. If no packets are shown the sender has not sent any weather packets the latest 10 day(s).
| Time | Temp. | Humidity | Pressure | Rain* | Wind** | Luminosity | Snow |
|---|---|---|---|---|---|---|---|
| 1777592567 | 23.33° C | 80% | 1007.7 hPa | 0 mm | - | 73 W/m² | - |
| 1777592262 | 23.89° C | 79% | 1007.8 hPa | 0 mm | - | 120 W/m² | - |
| 1777591959 | 24.44° C | 78% | 1007.4 hPa | 0 mm | - | 187 W/m² | - |
| 1777591655 | 25° C | 78% | 1007.1 hPa | 0 mm | - | 256 W/m² | - |
| 1777591351 | 23.89° C | 80% | 1007.1 hPa | 0 mm | - | 200 W/m² | - |
| 1777591047 | 24.44° C | 79% | 1006.9 hPa | 0 mm | - | 124 W/m² | - |
| 1777590743 | 24.44° C | 79% | 1007.1 hPa | 0 mm | - | 138 W/m² | - |
| 1777590439 | 25° C | 78% | 1007.1 hPa | 0 mm | - | 206 W/m² | - |
| 1777590136 | 24.44° C | 79% | 1007.3 hPa | 0 mm | - | 218 W/m² | - |
| 1777589833 | 24.44° C | 78% | 1007 hPa | 0 mm | - | 182 W/m² | - |
| 1777589528 | 24.44° C | 79% | 1006.8 hPa | 0 mm | - | 191 W/m² | - |
| 1777589227 | 24.44° C | 79% | 1006.9 hPa | 0 mm | - | 204 W/m² | - |
| 1777588924 | 24.44° C | 78% | 1006.7 hPa | 0 mm | - | 127 W/m² | - |
| 1777588620 | 25° C | 77% | 1006.7 hPa | 0 mm | - | 141 W/m² | - |
| 1777588320 | 25° C | 76% | 1006.5 hPa | 0 mm | - | 354 W/m² | - |
| 1777588015 | 25° C | 76% | 1006.6 hPa | 0 mm | - | 344 W/m² | - |
| 1777587711 | 25° C | 76% | 1006.7 hPa | 0 mm | - | 370 W/m² | - |
| 1777587406 | 25° C | 77% | 1006.7 hPa | 0 mm | - | 334 W/m² | - |
| 1777587103 | 25° C | 76% | 1007 hPa | 0 mm | - | 276 W/m² | - |
| 1777586799 | 25° C | 77% | 1006.8 hPa | 0 mm | - | 444 W/m² | - |
| 1777586494 | 25° C | 76% | 1007 hPa | 0 mm | - | 333 W/m² | - |
| 1777586189 | 25.56° C | 76% | 1007.1 hPa | 0 mm | - | 456 W/m² | - |
| 1777585888 | 25.56° C | 75% | 1007.2 hPa | 0 mm | - | 486 W/m² | - |
| 1777585582 | 25.56° C | 77% | 1007.4 hPa | 0 mm | - | 507 W/m² | - |
| 1777585278 | 25° C | 78% | 1007.3 hPa | 0 mm | - | 512 W/m² | - |
* Rain latest hour (hover to see other rain measurements)
** Current wind speed in m/s (hover to see current wind gust speed)